Погода в Морозово

Россия / Белгородская область     51°10′00″N   37°12′48″E
темп.,
°C
ветер,
м/с
пор.,
м/с
влажн.,
%
обл.,
%
осадки,
мм/ч
давл.,
гПа
погр.,
м
9 мая, вс
вс900:00+4з71297100 0.1 1009620
03:00+4зсз81293100 0.2 1010940
06:00+4зсз81397100 0.1 1011766
09:00+4сз81285100 0.1 1014972
12:00+7сз71171100 0.0 10151276
15:00+9ссз8116199 0.1 10171785
18:00+9сз711645 0.1 10181674
21:00+4сз35825 0.2 102287
10 мая, пн
пн1000:00+4сз514835 0.0 1022346
03:00+3сз515825 0.0 1024346
06:00+4ссз513790 0.0 1024340
09:00+9с813590 0.0 10241439
12:00+12с1013485 0.0 10231790
15:00+12с9135499 0.0 10221877
18:00+11с9146299 0.0 10221405
21:00+10ссв91661100 0.0 1021940
11 мая, вт
вт1100:00+8с102088100 0.9 1019594
03:00+8ссв91885100 1.0 1019626
06:00+8ссв91691100 0.1 1018420
09:00+10св81591100 0.9 1019807
12:00+11в8128363 0.3 10201187
15:00+14в9115459 0.4 10201925
18:00+11в712715 0.0 10221209
21:00+8всв6147579 0.0 1023567
12 мая, ср
ср1200:00+8в61380100 0.0 1022446
03:00+7в61383100 0.0 1021530
06:00+7в5128768 0.0 1021488
09:00+12вюв8157194 0.0 10201455
12:00+11юв81481100 1.1 10201410
15:00+12юв7157496 1.3 10191575
18:00+10вюв5108499 0.1 1019506
21:00+10вюв51185100 0.1 1018374
13 мая, чт
чт1300:00+10юв31086100 0.1 1018299
03:00+9вюв389168 0.1 1018207
06:00+9юв49925 0.0 1018189
09:00+15юв58715 0.0 1018604
12:00+19ююв6759100 0.0 10171333
15:00+20юв565575 0.0 10171474
18:00+18вюв4766100 0.0 1016392
21:00+14вюв477788 0.0 1016113